Hoquiam, WA
on Friday, November 16, 2012

Friday
Previous Day Next Day
Daily Summary
 ActualAverageRecord
Temperature
Mean Temperature °F / °C 46°F / 8°C  
Max Temperature 51°F / 11°C 51°F / 11°C 62°F / 16°C (1965)
Min Temperature 39°F / 4°C 40°F / 4°C 23°F / -5°C (1955)
Degree Days
Heating Degree Days 20 19  
Month to date heating degree days 283  
Cooling Degree Days 0 0  
Month to date cooling degree days 0  
Year to date cooling degree days 23  
Moisture
Dew Point 42°F / 6°C   
Average Humidity 93    
Maximum Humidity 100    
Minimum Humidity 80    
Precipitation
Precipitation 0.17 in / 4.32 cm 0.40 in / 10.16 cm 2.79 in / 7.09 cm (2009)
Month to date precipitation 5.83  
Year to date precipitation 52.25  
Wind
Wind Speed 9 mph / 14 km/h   
Max Wind Speed 13 mph / 21 km/h   
Max Gust Speed mph / km/h   
Visibility 7 miles / 11 kilometers   
Events Rain   

Key: T is trace of precipitation, MM is missing value
Source: NWS Daily Summary
Time(PST)TemperatureDew PointHumidity Pressure Visibility Wind DirectionWind SpeedGust SpeedPrecipitationEvents Conditions
12:02 AM 42.8°F / 6.0°C 41.0°F / 5.0°C 93% 29.93 in / 1013.4 hPa 6.0 miles / 9.7 kilometers ENE 9.2 mph / 14.8 km/h - N/A   Overcast
12:23 AM 42.8°F / 6.0°C 41.0°F / 5.0°C 93% 29.93 in / 1013.4 hPa 6.0 miles / 9.7 kilometers ENE 9.2 mph / 14.8 km/h - N/A   Overcast
12:53 AM 43.0°F / 6.1°C 41.0°F / 5.0°C 93% 29.94 in / 1013.6 hPa 6.0 miles / 9.7 kilometers ENE 9.2 mph / 14.8 km/h - N/A   Overcast
1:39 AM 42.8°F / 6.0°C 41.0°F / 5.0°C 93% 29.92 in / 1013.1 hPa 7.0 miles / 11.3 kilometers ENE 9.2 mph / 14.8 km/h - N/A   Overcast
1:46 AM 42.8°F / 6.0°C 41.0°F / 5.0°C 93% 29.92 in / 1013.1 hPa 7.0 miles / 11.3 kilometers NE 8.1 mph / 13.0 km/h - N/A   Overcast
1:53 AM 43.0°F / 6.1°C 41.0°F / 5.0°C 93% 29.93 in / 1013.5 hPa 7.0 miles / 11.3 kilometers NE 5.8 mph / 9.3 km/h - N/A   Overcast
2:05 AM 42.8°F / 6.0°C 41.0°F / 5.0°C 93% 29.92 in / 1013.1 hPa 8.0 miles / 12.9 kilometers ENE 5.8 mph / 9.3 km/h - N/A   Overcast
2:20 AM 42.8°F / 6.0°C 41.0°F / 5.0°C 93% 29.91 in / 1012.8 hPa 8.0 miles / 12.9 kilometers ENE 6.9 mph / 11.1 km/h - N/A   Overcast
2:53 AM 42.1°F / 5.6°C 41.0°F / 5.0°C 96% 29.92 in / 1013.0 hPa 8.0 miles / 12.9 kilometers ENE 9.2 mph / 14.8 km/h - N/A   Overcast
3:48 AM 42.8°F / 6.0°C 41.0°F / 5.0°C 93% 29.90 in / 1012.4 hPa 7.0 miles / 11.3 kilometers ENE 8.1 mph / 13.0 km/h - N/A   Overcast
3:53 AM 42.1°F / 5.6°C 41.0°F / 5.0°C 96% 29.91 in / 1012.7 hPa 7.0 miles / 11.3 kilometers ENE 8.1 mph / 13.0 km/h - N/A   Overcast
4:24 AM 42.8°F / 6.0°C 39.2°F / 4.0°C 87% 29.89 in / 1012.1 hPa 8.0 miles / 12.9 kilometers ENE 8.1 mph / 13.0 km/h - N/A   Mostly Cloudy
4:53 AM 41.0°F / 5.0°C 39.9°F / 4.4°C 96% 29.89 in / 1012.1 hPa 7.0 miles / 11.3 kilometers NE 8.1 mph / 13.0 km/h - N/A   Scattered Clouds
5:28 AM 41.0°F / 5.0°C 39.2°F / 4.0°C 93% 29.88 in / 1011.7 hPa 4.0 miles / 6.4 kilometers ENE 9.2 mph / 14.8 km/h - N/A   Mostly Cloudy
5:53 AM 41.0°F / 5.0°C 39.9°F / 4.4°C 96% 29.89 in / 1012.2 hPa 4.0 miles / 6.4 kilometers ENE 9.2 mph / 14.8 km/h - N/A   Mostly Cloudy
6:02 AM 41.0°F / 5.0°C 39.2°F / 4.0°C 93% 29.88 in / 1011.7 hPa 3.0 miles / 4.8 kilometers ENE 9.2 mph / 14.8 km/h - N/A   Mostly Cloudy
6:30 AM 39.2°F / 4.0°C 39.2°F / 4.0°C 100% 29.87 in / 1011.4 hPa 4.0 miles / 6.4 kilometers ENE 9.2 mph / 14.8 km/h - N/A   Scattered Clouds
6:53 AM 39.9°F / 4.4°C 39.0°F / 3.9°C 97% 29.88 in / 1011.9 hPa 4.0 miles / 6.4 kilometers ENE 9.2 mph / 14.8 km/h - N/A   Partly Cloudy
7:53 AM 39.9°F / 4.4°C 39.0°F / 3.9°C 97% 29.89 in / 1012.2 hPa 4.0 miles / 6.4 kilometers ENE 8.1 mph / 13.0 km/h - N/A   Clear
8:00 AM 39.2°F / 4.0°C 39.2°F / 4.0°C 100% 29.88 in / 1011.7 hPa 4.0 miles / 6.4 kilometers NE 9.2 mph / 14.8 km/h - N/A   Scattered Clouds
8:53 AM 41.0°F / 5.0°C 39.0°F / 3.9°C 93% 29.90 in / 1012.4 hPa 5.0 miles / 8.0 kilometers NE 9.2 mph / 14.8 km/h - N/A   Clear
9:53 AM 43.0°F / 6.1°C 41.0°F / 5.0°C 93% 29.89 in / 1012.2 hPa 9.0 miles / 14.5 kilometers NE 8.1 mph / 13.0 km/h - N/A   Mostly Cloudy
10:38 AM 42.8°F / 6.0°C 41.0°F / 5.0°C 93% 29.89 in / 1012.1 hPa 9.0 miles / 14.5 kilometers ENE 9.2 mph / 14.8 km/h - N/A   Overcast
10:53 AM 44.1°F / 6.7°C 41.0°F / 5.0°C 89% 29.89 in / 1012.2 hPa 9.0 miles / 14.5 kilometers ENE 9.2 mph / 14.8 km/h - N/A   Overcast
11:20 AM 44.6°F / 7.0°C 41.0°F / 5.0°C 87% 29.87 in / 1011.4 hPa 9.0 miles / 14.5 kilometers NE 8.1 mph / 13.0 km/h - N/A   Overcast
11:53 AM 46.0°F / 7.8°C 43.0°F / 6.1°C 89% 29.86 in / 1011.1 hPa 10.0 miles / 16.1 kilometers ENE 6.9 mph / 11.1 km/h - N/A   Overcast
12:53 PM 48.0°F / 8.9°C 43.0°F / 6.1°C 83% 29.83 in / 1010.0 hPa 10.0 miles / 16.1 kilometers ENE 6.9 mph / 11.1 km/h - N/A   Overcast
1:53 PM 48.0°F / 8.9°C 42.1°F / 5.6°C 80% 29.81 in / 1009.3 hPa 10.0 miles / 16.1 kilometers ENE 10.4 mph / 16.7 km/h - N/A   Overcast
2:53 PM 46.0°F / 7.8°C 44.1°F / 6.7°C 93% 29.79 in / 1008.6 hPa 5.0 miles / 8.0 kilometers ENE 10.4 mph / 16.7 km/h - 0.03 in / 0.8 cm Rain Light Rain
3:53 PM 46.9°F / 8.3°C 45.0°F / 7.2°C 93% 29.77 in / 1008.1 hPa 8.0 miles / 12.9 kilometers ENE 11.5 mph / 18.5 km/h - 0.02 in / 0.5 cm   Overcast
4:53 PM 46.9°F / 8.3°C 46.0°F / 7.8°C 97% 29.75 in / 1007.5 hPa 7.0 miles / 11.3 kilometers ENE 9.2 mph / 14.8 km/h - 0.00 in / 0.0 cm   Overcast
5:53 PM 48.0°F / 8.9°C 46.0°F / 7.8°C 93% 29.74 in / 1006.9 hPa 7.0 miles / 11.3 kilometers NE 12.7 mph / 20.4 km/h - 0.03 in / 0.8 cm Rain Light Rain
6:53 PM 48.0°F / 8.9°C 46.9°F / 8.3°C 96% 29.72 in / 1006.4 hPa 7.0 miles / 11.3 kilometers ENE 10.4 mph / 16.7 km/h - 0.02 in / 0.5 cm Rain Light Rain
7:53 PM 48.9°F / 9.4°C 46.9°F / 8.3°C 93% 29.71 in / 1006.0 hPa 5.0 miles / 8.0 kilometers ENE 9.2 mph / 14.8 km/h - 0.03 in / 0.8 cm Rain Light Rain
8:53 PM 50.0°F / 10.0°C 48.0°F / 8.9°C 93% 29.70 in / 1005.6 hPa 7.0 miles / 11.3 kilometers ENE 9.2 mph / 14.8 km/h - 0.00 in / 0.0 cm   Overcast
9:53 PM 51.1°F / 10.6°C 48.9°F / 9.4°C 92% 29.69 in / 1005.4 hPa 7.0 miles / 11.3 kilometers ENE 10.4 mph / 16.7 km/h - 0.02 in / 0.5 cm Rain Light Rain
10:53 PM 51.1°F / 10.6°C 48.9°F / 9.4°C 92% 29.68 in / 1004.8 hPa 9.0 miles / 14.5 kilometers ENE 10.4 mph / 16.7 km/h - 0.00 in / 0.0 cm   Overcast
11:53 PM 51.1°F / 10.6°C 48.9°F / 9.4°C 92% 29.65 in / 1004.1 hPa 10.0 miles / 16.1 kilometers East 12.7 mph / 20.4 km/h - 0.02 in / 0.5 cm Rain Light Rain
Moon Phase
Nov. 16 Nov. 20 Nov. 28 Dec. 06 Dec. 13
Sunrise:07:21 AM (PST) Moon Rise:10:24 AM (PST)11/16
Sunset:04:39 PM (PST) Moon Set:07:43 PM (PST)11/16

Copyright © 2014 The Weather Underground, Inc.